Tracking 20093 objects as of 16-Dec-2019
HD Live streaming from Space Station
objects crossing your sky now

FENGYUN 1C DEB

Track FENGYUN 1C DEB now!
10-day predictions


NORAD ID: 33632
Int'l Code: 1999-025DDR
Perigee: 695.0 km
Apogee: 766.4 km
Inclination: 99.0 °
Period: 99.3 minutes
Semi major axis: 7101 km
RCS: 0.0035 m2 (small)
Launch date: May 10, 1999
Source: People's Republic of China (PRC)
Launch site: Taiyaun Space Center, China (TSC)

Note: This is SATELLITE DEBRIS
aabbcc
Your satellite tracking list
Your tracking list is empty




NASA's NSSDC Master Catalog

Two Line Element Set (TLE):
1 33632U 99025DDR 19349.26624674 +.00001150 +00000-0 +30175-3 0  9991
2 33632 099.0407 280.2097 0050270 229.6274 130.0524 14.50626778613058
Source of the keplerian elements: AFSPC